[[{"header":{"parameterUnit":"m.s-1","parameterCategory":1,"la1":30.2991,"la2":30.254,"lo1":-89.0895,"lo2":-89.0444,"dy":0.0017,"dx":0.0017,"nx":28,"ny":28,"refTime":"2025-01-21T03:00:00:Z","depth":0,"parameterNumber":2,"parameterNumberName":"U-component_of_WINDS"},"data":[0,0,0,0,0,0,0,0,0,0,0,0,0,0,0,0,0,0,0,0,0,0,0,0,0,0,0,0,0,0,0,0,0,0,0,0,0,0,0,0,0,0,0,0,0,0,0,0,0,0,0,0,0,0,0,0,0,0,-0.1451,-0.145,0,-0.1448,-0.1448,-0.1448,-0.1433,-0.1433,-0.1433,-0.1432,-0.1432,-0.1432,-0.1432,0,0,0,0,0,0,0,0,0,0,0,0,0,-0.1444,-0.1444,-0.1451,-0.145,-0.145,-0.1448,-0.1448,-0.1448,-0.1433,-0.1433,-0.1432,-0.1432,-0.1432,-0.1432,-0.1432,0,0,0,0,0,0,0,0,0,0,0,0,0,-0.1445,-0.1444,-0.1451,-0.1443,-0.1442,-0.1448,-0.1448,-0.1448,-0.1433,-0.1433,-0.1432,-0.1432,-0.1432,-0.1432,-0.1432,-0.1446,0,0,-0.1434,-0.1434,0,0,0,0,0,0,0,0,-0.1445,-0.1445,-0.1444,-0.1443,-0.1443,-0.144,-0.1445,-0.1447,-0.1434,-0.1437,-0.1432,-0.1432,-0.1435,-0.1435,-0.1436,-0.1446,-0.1446,-0.1434,-0.1434,-0.1435,-0.1435,0,0,0,0,0,0,0,-0.1445,-0.1445,-0.145,-0.1444,-0.1443,-0.144,-0.1439,-0.1446,-0.1439,-0.1436,-0.1435,-0.1435,-0.1435,-0.1436,-0.1436,-0.1446,-0.1434,-0.1434,-0.1435,-0.1435,-0.1467,-0.1468,0,0,0,0,0,0,-0.1446,-0.1445,-0.145,-0.1449,-0.1442,-0.144,-0.144,-0.1442,-0.1439,-0.1438,-0.1436,-0.1434,-0.1435,-0.1435,-0.1436,-0.1452,-0.1435,-0.1435,-0.1435,-0.1467,-0.1467,-0.1468,0,0,0,0,0,0,-0.1445,-0.1446,-0.145,-0.1447,-0.1447,-0.1441,-0.1443,-0.1442,-0.1443,-0.1438,-0.1437,-0.1438,-0.1435,-0.1435,-0.1444,-0.1452,-0.1435,-0.1436,-0.1466,-0.1467,-0.1468,-0.1484,0,0,0,0,0,0,-0.1445,-0.1446,-0.1451,-0.1447,-0.1447,-0.1457,-0.1444,-0.1442,-0.1443,-0.1442,-0.144,-0.1439,-0.1434,-0.1443,-0.1444,-0.1452,-0.1436,-0.1465,-0.1467,-0.1468,-0.1483,-0.1486,-0.1488,0,0,0,0,0,-0.1445,-0.1456,-0.1451,-0.1452,-0.1453,-0.1458,-0.1458,-0.1451,-0.1444,-0.1449,-0.1446,-0.1439,-0.145,-0.1444,-0.1445,-0.1454,-0.1465,-0.1466,-0.1467,-0.1482,-0.1485,-0.1488,0,0,0,0,0,0,-0.1462,-0.1456,-0.145,-0.146,-0.146,-0.1455,-0.1462,-0.1455,-0.1457,-0.1455,-0.1448,-0.1447,-0.1457,-0.1456,-0.1449,-0.1467,-0.1456,-0.1458,-0.1467,-0.147,-0.1473,-0.1473,-0.1436,0,0,0,0,0,-0.1467,-0.1471,-0.1465,-0.1474,-0.1474,-0.1468,-0.147,-0.1464,-0.1464,-0.1463,-0.1461,-0.1461,-0.1464,-0.1467,-0.147,-0.1482,-0.1482,-0.1489,-0.1491,-0.1493,-0.1495,-0.1502,-0.1505,-0.1472,-0.1472,-0.1472,0,0,-0.1478,-0.1474,-0.1477,-0.1478,-0.1477,-0.1481,-0.1468,-0.1473,-0.1476,-0.1464,-0.1472,-0.147,-0.147,-0.148,-0.1485,-0.148,-0.1503,-0.1495,-0.1496,-0.1497,-0.1503,-0.1506,-0.1509,-0.1473,-0.1473,-0.1473,0,0,-0.1499,-0.1496,-0.1504,-0.1503,-0.1501,-0.1496,-0.1498,-0.1494,-0.1493,-0.15,-0.1491,-0.1495,-0.1501,-0.1501,-0.1502,-0.1522,-0.1515,-0.1523,-0.1536,-0.1542,-0.1545,-0.1547,-0.1555,-0.1558,-0.1524,-0.1524,-0.1524,0,-0.1512,-0.1518,-0.1509,-0.1515,-0.1515,-0.1504,-0.1512,-0.1511,-0.151,-0.1511,-0.1505,-0.1512,-0.1511,-0.1521,-0.1526,-0.1527,-0.1529,-0.1524,-0.1545,-0.1547,-0.1549,-0.1557,-0.1559,-0.1525,-0.1525,-0.1525,-0.1525,0,-0.1535,-0.1539,-0.1545,-0.1544,-0.1545,-0.1552,-0.1545,-0.1547,-0.1541,-0.1538,-0.1545,-0.1543,-0.1545,-0.1547,-0.1542,-0.1557,-0.1554,-0.1546,-0.1536,-0.1553,-0.156,-0.1563,-0.1527,-0.1526,-0.1526,-0.1526,0,0,-0.1568,-0.1561,-0.1564,-0.1563,-0.1559,-0.1562,-0.1568,-0.157,-0.1572,-0.1572,-0.1577,-0.1582,-0.1575,-0.1576,-0.157,-0.1576,-0.1592,-0.1568,-0.1568,-0.1573,-0.1609,-0.1615,-0.1618,-0.1588,-0.1588,-0.1589,-0.1609,0,-0.1589,-0.1599,-0.1591,-0.1602,-0.1606,-0.1594,-0.16,-0.1598,-0.1594,-0.1597,-0.1593,-0.1597,-0.1587,-0.1588,-0.1593,-0.1589,-0.16,-0.1588,-0.1594,-0.1594,-0.1595,-0.1622,-0.1629,-0.1648,-0.1612,-0.1612,-0.1612,0,-0.1615,-0.1615,-0.1627,-0.1622,-0.1623,-0.1628,-0.1628,-0.1631,-0.1629,-0.1626,-0.1626,-0.1619,-0.1625,-0.1614,-0.1623,-0.1615,-0.1616,-0.1615,-0.1616,-0.1617,-0.1605,-0.1625,-0.1654,-0.1658,-0.1616,-0.1616,-0.1616,0,-0.1639,-0.1642,-0.1649,-0.1649,-0.1643,-0.1647,-0.1645,-0.1642,-0.1643,-0.1644,-0.1644,-0.1646,-0.1647,-0.1648,-0.1641,-0.1634,-0.1651,-0.1639,-0.1649,-0.1649,-0.1655,-0.1655,-0.1686,-0.1654,-0.1654,-0.1654,-0.1654,0,-0.1664,-0.1672,-0.166,-0.1665,-0.1673,-0.1663,-0.1672,-0.1669,-0.1666,-0.167,-0.166,-0.1664,-0.1655,-0.1658,-0.1653,-0.1661,-0.1662,-0.166,-0.1659,-0.1661,-0.1662,-0.1663,-0.1662,-0.1654,-0.1654,-0.1654,-0.1654,0,-0.1693,-0.1686,-0.1693,-0.1686,-0.1685,-0.1691,-0.1686,-0.169,-0.1685,-0.169,-0.1691,-0.1684,-0.1687,-0.168,-0.1683,-0.1679,-0.1691,-0.1687,-0.1691,-0.1691,-0.1701,-0.1701,-0.1736,-0.174,-0.1704,-0.1705,-0.1705,0,-0.171,-0.1716,-0.171,-0.1711,-0.171,-0.1712,-0.1713,-0.1703,-0.1705,-0.1702,-0.1707,-0.1709,-0.1711,-0.1716,-0.1712,-0.1713,-0.171,-0.1722,-0.171,-0.1713,-0.1711,-0.1711,-0.1712,-0.1725,-0.1725,-0.1726,-0.1726,0,-0.1742,-0.1737,-0.1739,-0.1738,-0.1739,-0.1739,-0.1738,-0.174,-0.173,-0.1732,-0.1734,-0.1735,-0.1737,-0.174,-0.174,-0.1738,-0.1731,-0.1729,-0.1732,-0.1736,-0.1738,-0.1738,-0.1699,-0.1729,-0.1729,-0.1728,-0.1728,-0.1728,-0.1766,-0.177,-0.1766,-0.1768,-0.1766,-0.1765,-0.1768,-0.1763,-0.1765,-0.1766,-0.176,-0.1764,-0.1761,-0.1761,-0.176,-0.1763,-0.1758,-0.1761,-0.1762,-0.1764,-0.1766,-0.1736,-0.1763,-0.1763,-0.1763,-0.1763,-0.1763,0,-0.1797,-0.1794,-0.1795,-0.1794,-0.1795,-0.1786,-0.1784,-0.1786,-0.179,-0.1787,-0.1789,-0.1792,-0.1794,-0.1788,-0.179,-0.1793,-0.179,-0.1794,-0.1795,-0.1794,-0.177,-0.1768,-0.1797,-0.1797,-0.1797,-0.1797,-0.1797,-0.1797,-0.1814,-0.1821,-0.1816,-0.1822,-0.1818,-0.1822,-0.1821,-0.182,-0.1819,-0.1822,-0.1824,-0.182,-0.1816,-0.1817,-0.1819,-0.1817,-0.1819,-0.1824,-0.1822,-0.1799,-0.1796,-0.1793,-0.1791,-0.1824,-0.1824,-0.1846,-0.1846,-0.1846]},{"header":{"parameterUnit":"m.s-1","parameterCategory":1,"la1":30.2991,"la2":30.254,"lo1":-89.0895,"lo2":-89.0444,"dy":0.0017,"dx":0.0017,"nx":28,"ny":28,"refTime":"2025-01-21T03:00:00:Z","depth":0,"parameterNumber":3,"parameterNumberName":"V-component_of_WINDS"},"data":[0,0,0,0,0,0,0,0,0,0,0,0,0,0,0,0,0,0,0,0,0,0,0,0,0,0,0,0,0,0,0,0,0,0,0,0,0,0,0,0,0,0,0,0,0,0,0,0,0,0,0,0,0,0,0,0,0,0,-1.6591,-1.6592,0,-1.664,-1.6641,-1.6642,-1.6639,-1.6638,-1.6638,-1.6637,-1.6684,-1.6686,-1.6688,0,0,0,0,0,0,0,0,0,0,0,0,0,-1.6492,-1.6494,-1.6591,-1.6592,-1.6592,-1.664,-1.6641,-1.6642,-1.6639,-1.6638,-1.6637,-1.6637,-1.6683,-1.6686,-1.6688,0,0,0,0,0,0,0,0,0,0,0,0,0,-1.6537,-1.6494,-1.6591,-1.6597,-1.6598,-1.664,-1.6641,-1.6642,-1.6639,-1.6638,-1.6637,-1.6636,-1.6683,-1.6685,-1.6688,-1.6727,0,0,-1.6697,-1.6698,0,0,0,0,0,0,0,0,-1.6535,-1.6541,-1.6596,-1.6597,-1.6598,-1.6633,-1.6623,-1.667,-1.664,-1.6624,-1.6637,-1.6636,-1.6668,-1.6672,-1.6683,-1.6729,-1.6731,-1.6697,-1.6699,-1.67,-1.6701,0,0,0,0,0,0,0,-1.6532,-1.6539,-1.6611,-1.6596,-1.6598,-1.6596,-1.6602,-1.6632,-1.6651,-1.6625,-1.6625,-1.6631,-1.6668,-1.668,-1.6684,-1.6732,-1.6697,-1.67,-1.6701,-1.6703,-1.6812,-1.6813,0,0,0,0,0,0,-1.6528,-1.6536,-1.6609,-1.6612,-1.6563,-1.6599,-1.6605,-1.6622,-1.665,-1.6654,-1.6632,-1.6631,-1.6676,-1.6681,-1.6686,-1.6733,-1.67,-1.6703,-1.6704,-1.6811,-1.6812,-1.6814,0,0,0,0,0,0,-1.6526,-1.6534,-1.6607,-1.6574,-1.6583,-1.6602,-1.6622,-1.6624,-1.6636,-1.6656,-1.6659,-1.6641,-1.6675,-1.6682,-1.6717,-1.6735,-1.6704,-1.6707,-1.6809,-1.6811,-1.6813,-1.6829,0,0,0,0,0,0,-1.6523,-1.6533,-1.6549,-1.6575,-1.6585,-1.6638,-1.6623,-1.6626,-1.6642,-1.6641,-1.6665,-1.6668,-1.6675,-1.6713,-1.672,-1.6738,-1.6709,-1.6808,-1.681,-1.6812,-1.6827,-1.6831,-1.6834,0,0,0,0,0,-1.6519,-1.655,-1.655,-1.6559,-1.6605,-1.6639,-1.6645,-1.6654,-1.6643,-1.6659,-1.6671,-1.6667,-1.6732,-1.6716,-1.6724,-1.6744,-1.6807,-1.681,-1.6812,-1.6825,-1.683,-1.6834,0,0,0,0,0,0,-1.6525,-1.6554,-1.6553,-1.6594,-1.6615,-1.6639,-1.6659,-1.6658,-1.6681,-1.6679,-1.6687,-1.6693,-1.6728,-1.6739,-1.6722,-1.6783,-1.6768,-1.6772,-1.6775,-1.678,-1.6783,-1.678,-1.6711,0,0,0,0,0,-1.6531,-1.6558,-1.6581,-1.6615,-1.6625,-1.664,-1.6655,-1.666,-1.6681,-1.6689,-1.6704,-1.6724,-1.6748,-1.6764,-1.6788,-1.6828,-1.6833,-1.6845,-1.6849,-1.6852,-1.6856,-1.6879,-1.6885,-1.6822,-1.6822,-1.6822,0,0,-1.6544,-1.6563,-1.6579,-1.6616,-1.6633,-1.666,-1.6647,-1.6676,-1.6696,-1.6693,-1.6728,-1.6739,-1.6762,-1.68,-1.6817,-1.681,-1.6874,-1.6855,-1.6858,-1.686,-1.6882,-1.6888,-1.6893,-1.6824,-1.6824,-1.6824,0,0,-1.6581,-1.6598,-1.6629,-1.6646,-1.6671,-1.6681,-1.6688,-1.6713,-1.6721,-1.6756,-1.6755,-1.6778,-1.682,-1.6837,-1.685,-1.6894,-1.6892,-1.6901,-1.6922,-1.6944,-1.6949,-1.6953,-1.697,-1.6975,-1.6905,-1.6905,-1.6905,0,-1.6594,-1.6635,-1.6644,-1.6674,-1.669,-1.669,-1.6721,-1.6736,-1.6768,-1.6779,-1.677,-1.6824,-1.6839,-1.6881,-1.6892,-1.6902,-1.6911,-1.6899,-1.6947,-1.6952,-1.6956,-1.6972,-1.6978,-1.6906,-1.6906,-1.6906,-1.6906,0,-1.665,-1.6679,-1.67,-1.6732,-1.6751,-1.678,-1.6793,-1.681,-1.6813,-1.6824,-1.686,-1.6877,-1.6905,-1.6915,-1.6917,-1.6958,-1.6953,-1.6946,-1.6931,-1.6963,-1.6978,-1.6984,-1.6908,-1.6907,-1.6907,-1.6907,0,0,-1.6693,-1.673,-1.6738,-1.6753,-1.6781,-1.6803,-1.6832,-1.6861,-1.6876,-1.6897,-1.6922,-1.6958,-1.6952,-1.6967,-1.6971,-1.6991,-1.7025,-1.6981,-1.6982,-1.699,-1.7072,-1.7078,-1.7085,-1.7024,-1.7025,-1.7026,-1.707,0,-1.6734,-1.6788,-1.6797,-1.6844,-1.6871,-1.6872,-1.6897,-1.6917,-1.6927,-1.695,-1.6961,-1.6987,-1.6977,-1.6986,-1.7005,-1.7017,-1.7042,-1.7014,-1.7047,-1.7048,-1.7043,-1.7093,-1.7099,-1.7141,-1.7076,-1.7077,-1.7078,0,-1.679,-1.6814,-1.6865,-1.689,-1.6902,-1.6925,-1.6952,-1.6974,-1.6996,-1.7002,-1.702,-1.7022,-1.7052,-1.7035,-1.7076,-1.7057,-1.7071,-1.7079,-1.708,-1.7085,-1.7066,-1.71,-1.7154,-1.7161,-1.7087,-1.7086,-1.7086,0,-1.6818,-1.6863,-1.6899,-1.6912,-1.6942,-1.6959,-1.6972,-1.6993,-1.7009,-1.7032,-1.7043,-1.7069,-1.7083,-1.7102,-1.7111,-1.7098,-1.7152,-1.7136,-1.7158,-1.7158,-1.717,-1.717,-1.7229,-1.7177,-1.7177,-1.7177,-1.7177,0,-1.6863,-1.6894,-1.6913,-1.6935,-1.697,-1.6979,-1.7013,-1.7025,-1.7044,-1.7068,-1.7069,-1.7091,-1.7101,-1.7124,-1.7131,-1.7164,-1.717,-1.7176,-1.7178,-1.7177,-1.7176,-1.7187,-1.7185,-1.7179,-1.7178,-1.7178,-1.7178,0,-1.6901,-1.6914,-1.6954,-1.698,-1.6987,-1.7012,-1.7033,-1.7055,-1.7065,-1.7095,-1.7103,-1.7119,-1.7147,-1.7157,-1.719,-1.7195,-1.7234,-1.7233,-1.7228,-1.7228,-1.7251,-1.7249,-1.732,-1.733,-1.727,-1.7271,-1.7271,0,-1.693,-1.6954,-1.6983,-1.7,-1.7015,-1.7042,-1.7059,-1.7069,-1.7087,-1.7114,-1.7132,-1.716,-1.7184,-1.7228,-1.7242,-1.7268,-1.7267,-1.729,-1.7271,-1.727,-1.7269,-1.7268,-1.7271,-1.7294,-1.7295,-1.7296,-1.7296,0,-1.6981,-1.6986,-1.7013,-1.7041,-1.7063,-1.7085,-1.7107,-1.7121,-1.7133,-1.7153,-1.7183,-1.7201,-1.7236,-1.7264,-1.7291,-1.7303,-1.7302,-1.7302,-1.7309,-1.7309,-1.7305,-1.7309,-1.7239,-1.73,-1.73,-1.73,-1.7299,-1.7299,-1.7016,-1.7038,-1.7062,-1.7091,-1.7109,-1.713,-1.7152,-1.7165,-1.719,-1.7221,-1.7224,-1.7256,-1.7277,-1.7313,-1.7327,-1.7351,-1.7345,-1.7354,-1.7357,-1.7359,-1.7362,-1.73,-1.7355,-1.7355,-1.7355,-1.7355,-1.7355,0,-1.7068,-1.7083,-1.711,-1.7142,-1.7165,-1.7163,-1.7187,-1.7206,-1.7234,-1.7255,-1.7278,-1.7312,-1.7339,-1.7356,-1.7383,-1.7399,-1.7399,-1.7406,-1.7406,-1.7409,-1.7365,-1.7357,-1.7406,-1.7406,-1.7406,-1.7406,-1.7406,-1.7406,-1.7097,-1.7135,-1.7144,-1.719,-1.7205,-1.7238,-1.7252,-1.7271,-1.7287,-1.7326,-1.7349,-1.736,-1.7379,-1.7407,-1.7432,-1.7436,-1.7446,-1.7454,-1.7457,-1.7417,-1.7412,-1.7407,-1.7399,-1.7456,-1.7456,-1.7499,-1.7499,-1.75]}]]